Temp
-6 -7 -7 -7 -7 -7 -7 -7 -7 -7 -7 -7 -7 -7 -7 -6 -6 -6 -6 -6 -6 -6 -6 -6 -6 -6 -6 -6 -6 -6 -6 -6 -6 -6 -6 -6 -6 -6 -6 -6 -6 -6 -6 -6 -6 -6 -6 -6 -6 -6 -6 -6 -7 -7 -7 -7 -7 -7 -7 -7 -7 -8 -8
-6 -6 -7 -7 -7 -7 -7 -7 -7 -7 -7 -7 -7 -7 -7 -7 -7 -7 -7 -7 -7 -6 -6 -6 -6 -6 -6 -6 -6 -6 -6 -6 -6 -6 -6 -6 -6 -6 -6 -6 -6 -6 -6 -6 -6 -6 -6 -6 -6 -6 -6 -6 -6 -7 -7 -7 -7 -7 -7 -7 -7 -7 -7
-6 -6 -6 -6 -7 -7 -8 -7 -7 -7 -7 -7 -7 -7 -7 -7 -7 -7 -6 -6 -7 -7 -6 -6 -6 -6 -6 -6 -6 -6 -6 -6 -6 -6 -6 -6 -6 -6 -6 -6 -6 -6 -7 -6 -6 -6 -6 -6 -6 -6 -6 -6 -6 -6 -6 -6 -7 -7 -7 -7 -7 -7 -7
-6 -6 -6 -6 -7 -7 -8 -8 -7 -7 -7 -7 -7 -7 -7 -7 -7 -7 -6 -6 -6 -7 -7 -6 -6 -6 -6 -6 -6 -6 -6 -6 -6 -6 -6 -6 -6 -6 -6 -6 -7 -7 -7 -6 -6 -6 -6 -6 -6 -6 -6 -6 -6 -6 -6 -6 -6 -7 -7 -7 -7 -7 -7
-6 -7 -7 -6 -7 -7 -8 -8 -8 -8 -7 -7 -8 -8 -7 -7 -7 -7 -7 -6 -6 -6 -6 -6 -6 -6 -6 -6 -6 -6 -6 -6 -6 -6 -6 -7 -7 -7 -6 -7 -7 -7 -7 -7 -7 -7 -7 -7 -6 -6 -6 -6 -6 -6 -6 -6 -6 -7 -7 -7 -7 -7 -7
-7 -8 -8 -7 -7 -7 -8 -8 -8 -8 -8 -8 -8 -8 -8 -7 -8 -7 -7 -7 -6 -6 -6 -6 -6 -7 -7 -7 -6 -6 -6 -6 -7 -7 -7 -7 -7 -7 -7 -7 -7 -7 -7 -7 -7 -7 -7 -7 -6 -6 -6 -6 -6 -6 -6 -6 -6 -6 -7 -7 -7 -7 -7
-7 -8 -8 -8 -8 -8 -8 -8 -8 -8 -8 -8 -8 -8 -7 -7 -8 -8 -7 -7 -7 -6 -6 -7 -7 -7 -7 -7 -7 -7 -7 -7 -7 -7 -7 -7 -7 -7 -7 -7 -7 -7 -7 -7 -7 -7 -6 -6 -6 -6 -6 -6 -6 -6 -6 -6 -6 -6 -6 -6 -7 -7 -7
-7 -7 -8 -8 -8 -8 -8 -7 -8 -8 -8 -8 -8 -8 -7 -7 -7 -8 -8 -8 -7 -7 -7 -7 -7 -7 -7 -7 -7 -7 -7 -7 -7 -7 -7 -7 -7 -7 -7 -7 -7 -7 -7 -7 -7 -7 -6 -6 -6 -6 -6 -6 -6 -6 -6 -6 -6 -6 -6 -6 -6 -7 -7
-7 -7 -8 -8 -8 -8 -8 -7 -7 -8 -8 -8 -7 -8 -8 -7 -7 -8 -8 -8 -8 -7 -7 -7 -6 -7 -7 -7 -7 -7 -7 -7 -7 -7 -7 -7 -7 -7 -7 -7 -7 -7 -7 -7 -7 -7 -7 -6 -6 -6 -6 -6 -6 -6 -6 -6 -6 -6 -6 -6 -6 -6 -6
-7 -8 -8 -8 -7 -7 -7 -7 -7 -7 -7 -7 -7 -7 -7 -7 -7 -8 -8 -8 -7 -7 -7 -7 -7 -7 -7 -7 -7 -7 -7 -7 -7 -7 -7 -7 -7 -7 -7 -7 -7 -7 -6 -6 -6 -6 -6 -6 -7 -6 -6 -6 -6 -6 -6 -6 -6 -6 -6 -6 -6 -6 -6
-7 -7 -7 -7 -7 -7 -7 -7 -7 -7 -7 -7 -7 -7 -7 -7 -7 -7 -7 -7 -8 -8 -7 -7 -7 -7 -7 -7 -7 -7 -7 -7 -7 -6 -7 -7 -7 -6 -6 -7 -7 -7 -7 -7 -7 -7 -7 -7 -7 -7 -6 -6 -6 -6 -6 -6 -6 -6 -6 -6 -6 -6 -6
-8 -8 -8 -8 -8 -8 -7 -7 -7 -7 -7 -7 -7 -7 -7 -7 -7 -7 -7 -7 -7 -8 -8 -7 -7 -7 -7 -7 -7 -7 -7 -7 -7 -7 -6 -7 -7 -7 -7 -7 -7 -7 -7 -7 -7 -7 -7 -7 -7 -7 -7 -6 -6 -6 -6 -6 -6 -6 -6 -6 -6 -6 -6
-9 -9 -8 -8 -8 -8 -8 -8 -7 -7 -7 -7 -7 -7 -7 -7 -7 -7 -7 -7 -7 -7 -7 -8 -7 -7 -7 -7 -7 -7 -7 -7 -7 -7 -7 -7 -7 -7 -7 -7 -7 -7 -7 -7 -7 -7 -7 -7 -7 -7 -7 -7 -7 -7 -6 -6 -6 -6 -6 -6 -6 -6 -6
-9 -9 -9 -9 -9 -9 -8 -8 -8 -8 -8 -8 -8 -7 -7 -7 -7 -7 -7 -7 -7 -7 -7 -7 -7 -7 -7 -7 -7 -7 -7 -7 -7 -7 -7 -7 -7 -7 -7 -7 -7 -7 -7 -7 -7 -7 -7 -7 -7 -7 -7 -7 -7 -7 -7 -7 -6 -6 -6 -6 -6 -6 -6
-9 -9 -9 -9 -9 -9 -9 -8 -8 -8 -8 -8 -8 -8 -8 -8 -8 -7 -7 -7 -7 -7 -7 -7 -7 -7 -7 -7 -7 -7 -6 -7 -7 -7 -7 -7 -7 -7 -7 -7 -7 -7 -7 -7 -7 -7 -7 -7 -7 -7 -7 -7 -7 -7 -7 -7 -7 -6 -6 -6 -6 -6 -6
-9 -10 -10 -10 -9 -9 -9 -9 -8 -8 -8 -8 -8 -8 -8 -8 -8 -7 -7 -7 -7 -7 -7 -7 -7 -7 -6 -6 -7 -6 -6 -6 -6 -7 -7 -6 -6 -7 -7 -7 -7 -7 -7 -7 -7 -7 -7 -7 -7 -7 -7 -7 -7 -7 -7 -7 -7 -7 -7 -7 -7 -7 -7
-10 -10 -10 -10 -10 -9 -9 -9 -9 -9 -8 -8 -8 -8 -8 -8 -7 -7 -7 -7 -7 -7 -7 -7 -7 -7 -7 -7 -6 -6 -6 -6 -6 -6 -7 -6 -6 -6 -6 -7 -7 -7 -7 -7 -7 -7 -7 -7 -7 -7 -7 -7 -7 -7 -7 -7 -7 -7 -7 -7 -7 -7 -7
-10 -10 -10 -10 -10 -10 -9 -9 -9 -9 -9 -8 -8 -8 -8 -8 -8 -7 -7 -7 -7 -7 -7 -6 -6 -7 -7 -7 -6 -6 -6 -6 -6 -6 -6 -6 -6 -6 -6 -6 -7 -7 -7 -7 -7 -7 -7 -7 -7 -7 -6 -7 -7 -7 -7 -7 -7 -7 -7 -7 -7 -7 -7
-10 -10 -10 -10 -10 -10 -10 -9 -9 -9 -8 -8 -8 -8 -8 -8 -8 -8 -7 -7 -7 -7 -7 -6 -6 -6 -6 -6 -7 -6 -6 -6 -7 -7 -7 -7 -7 -6 -6 -6 -7 -7 -7 -7 -7 -7 -7 -7 -7 -6 -7 -7 -7 -7 -7 -7 -7 -7 -7 -7 -7 -7 -7
-10 -10 -10 -10 -10 -10 -10 -9 -9 -9 -9 -8 -8 -8 -8 -8 -8 -8 -7 -7 -7 -7 -7 -7 -7 -7 -7 -7 -7 -6 -6 -7 -7 -7 -7 -7 -7 -6 -6 -6 -7 -7 -7 -7 -7 -7 -7 -7 -7 -6 -6 -7 -6 -7 -7 -7 -7 -7 -7 -7 -7 -7 -7
-10 -10 -10 -10 -10 -10 -10 -10 -9 -9 -9 -9 -8 -8 -8 -8 -8 -8 -8 -7 -7 -7 -7 -7 -7 -7 -7 -7 -7 -6 -6 -6 -7 -7 -7 -7 -7 -6 -6 -6 -6 -7 -7 -7 -7 -7 -7 -7 -7 -7 -7 -7 -6 -6 -7 -7 -7 -7 -7 -7 -7 -7 -7
-10 -10 -10 -10 -10 -10 -10 -10 -9 -9 -9 -9 -9 -9 -8 -8 -8 -8 -8 -8 -7 -7 -7 -7 -7 -7 -7 -7 -7 -7 -6 -7 -7 -6 -6 -7 -7 -7 -7 -7 -7 -7 -7 -7 -7 -7 -7 -7 -7 -7 -7 -7 -7 -7 -7 -7 -7 -7 -7 -7 -7 -7 -7
-10 -10 -10 -10 -10 -10 -10 -10 -10 -9 -9 -9 -9 -9 -8 -8 -8 -8 -8 -8 -7 -7 -7 -7 -6 -7 -7 -7 -7 -7 -7 -7 -6 -6 -7 -7 -7 -7 -7 -7 -7 -7 -7 -7 -7 -7 -7 -7 -7 -7 -7 -7 -7 -7 -7 -7 -7 -7 -7 -7 -7 -7 -7
-11 -11 -11 -10 -10 -10 -10 -10 -10 -9 -9 -9 -9 -9 -8 -8 -8 -8 -8 -7 -7 -7 -7 -6 -7 -7 -7 -6 -6 -6 -6 -7 -6 -6 -7 -7 -7 -7 -7 -7 -8 -7 -7 -7 -7 -7 -7 -7 -7 -7 -7 -7 -7 -7 -7 -7 -7 -7 -7 -7 -7 -7 -7
-11 -11 -11 -10 -10 -10 -10 -10 -10 -10 -9 -9 -9 -8 -8 -8 -8 -8 -8 -7 -7 -7 -7 -7 -7 -7 -7 -7 -7 -6 -6 -6 -7 -7 -7 -7 -7 -7 -7 -7 -8 -8 -8 -8 -7 -7 -7 -7 -7 -7 -7 -7 -7 -7 -8 -7 -7 -7 -7 -7 -7 -7 -7
-11 -11 -11 -10 -10 -10 -10 -10 -10 -10 -10 -9 -9 -9 -8 -8 -8 -8 -8 -7 -7 -8 -8 -7 -7 -7 -7 -7 -7 -7 -7 -7 -7 -7 -7 -7 -7 -7 -7 -7 -7 -7 -7 -8 -7 -7 -7 -7 -7 -7 -7 -7 -7 -8 -8 -8 -7 -7 -7 -7 -7 -7 -7
-11 -11 -11 -10 -10 -10 -10 -10 -10 -10 -10 -10 -9 -9 -8 -8 -8 -8 -8 -8 -8 -8 -8 -8 -8 -7 -7 -7 -7 -7 -7 -7 -7 -7 -7 -7 -7 -7 -7 -7 -7 -7 -8 -8 -7 -7 -7 -7 -7 -8 -8 -8 -8 -8 -8 -8 -7 -7 -7 -7 -7 -7 -7
-11 -11 -11 -10 -10 -10 -11 -11 -10 -10 -10 -10 -10 -9 -9 -8 -8 -7 -8 -8 -8 -8 -8 -8 -8 -8 -7 -7 -7 -7 -7 -7 -7 -7 -7 -7 -7 -7 -7 -7 -7 -7 -8 -8 -8 -8 -7 -7 -8 -8 -8 -8 -8 -8 -8 -8 -7 -7 -7 -7 -7 -7 -7
-11 -11 -11 -11 -10 -10 -10 -10 -10 -10 -10 -10 -10 -10 -9 -9 -9 -8 -8 -8 -8 -8 -8 -8 -8 -8 -7 -7 -7 -7 -7 -7 -7 -7 -7 -7 -7 -7 -7 -7 -7 -7 -8 -8 -8 -8 -8 -7 -8 -8 -8 -8 -8 -8 -8 -8 -8 -8 -7 -7 -7 -7 -8
-11 -11 -11 -11 -11 -11 -11 -10 -10 -10 -10 -10 -10 -10 -10 -10 -9 -9 -9 -9 -9 -8 -8 -8 -8 -8 -7 -7 -7 -7 -7 -7 -7 -7 -7 -7 -7 -8 -8 -8 -8 -8 -8 -8 -8 -8 -8 -8 -8 -8 -8 -8 -8 -8 -8 -8 -8 -8 -7 -7 -7 -8 -8
-11 -11 -11 -11 -11 -11 -11 -10 -10 -10 -10 -10 -10 -10 -10 -10 -10 -9 -9 -9 -9 -9 -8 -8 -8 -8 -8 -8 -8 -7 -7 -7 -7 -7 -7 -8 -8 -8 -8 -8 -8 -8 -8 -8 -8 -8 -8 -8 -8 -8 -8 -8 -8 -8 -8 -8 -8 -8 -8 -8 -8 -8 -8
-11 -11 -11 -11 -11 -11 -11 -11 -10 -10 -10 -10 -10 -10 -10 -10 -10 -10 -10 -9 -9 -9 -9 -9 -9 -8 -8 -8 -8 -8 -8 -8 -8 -8 -8 -8 -8 -8 -8 -8 -8 -9 -8 -8 -8 -8 -8 -8 -8 -8 -8 -8 -9 -8 -8 -8 -8 -8 -9 -9 -9 -9 -9
-11 -11 -11 -11 -11 -11 -11 -11 -11 -10 -10 -10 -10 -10 -10 -10 -10 -10 -10 -10 -10 -10 -9 -9 -9 -9 -8 -8 -8 -8 -8 -8 -8 -8 -8 -8 -8 -8 -9 -9 -9 -9 -9 -9 -9 -9 -9 -9 -9 -9 -9 -9 -8 -8 -8 -8 -8 -9 -9 -9 -9 -9 -9
-11 -11 -11 -11 -11 -11 -11 -11 -11 -11 -11 -10 -10 -10 -10 -10 -10 -10 -10 -10 -10 -10 -9 -9 -9 -9 -9 -9 -8 -8 -9 -9 -9 -8 -8 -9 -9 -9 -9 -9 -9 -9 -9 -9 -9 -9 -9 -9 -9 -9 -9 -9 -9 -9 -9 -9 -9 -9 -9 -9 -9 -9 -9
-11 -11 -12 -12 -12 -12 -11 -11 -11 -11 -11 -11 -11 -10 -10 -10 -10 -10 -10 -10 -10 -10 -10 -9 -9 -9 -9 -9 -9 -9 -9 -9 -9 -9 -9 -9 -9 -9 -9 -9 -9 -9 -10 -10 -10 -10 -10 -10 -10 -9 -9 -9 -9 -10 -10 -10 -10 -10 -10 -10 -10 -10 -10
-12 -12 -12 -12 -12 -12 -12 -12 -11 -11 -11 -11 -11 -11 -11 -11 -11 -11 -11 -11 -11 -10 -10 -10 -10 -9 -9 -9 -9 -9 -9 -9 -9 -10 -10 -10 -9 -9 -9 -9 -9 -10 -10 -10 -10 -10 -10 -10 -10 -10 -10 -10 -10 -10 -10 -10 -10 -10 -10 -10 -10 -10 -10
-12 -12 -12 -12 -12 -12 -12 -12 -12 -12 -12 -12 -12 -12 -12 -11 -11 -11 -11 -11 -11 -11 -11 -11 -10 -10 -10 -10 -10 -10 -10 -10 -10 -10 -10 -10 -10 -10 -10 -10 -10 -10 -10 -10 -10 -10 -11 -11 -11 -11 -10 -10 -10 -10 -10 -11 -11 -11 -11 -11 -10 -10 -10
-13 -13 -13 -13 -13 -13 -13 -12 -12 -12 -12 -12 -12 -12 -12 -12 -12 -12 -12 -11 -11 -11 -11 -11 -11 -11 -10 -10 -10 -10 -10 -10 -10 -10 -10 -10 -10 -10 -10 -10 -10 -10 -10 -10 -11 -11 -11 -11 -11 -11 -11 -11 -11 -11 -11 -11 -11 -11 -11 -11 -11 -11 -11
Height
5883 5885 5886 5889 5892 5895 5898 5901 5903 5905 5907 5908 5910 5911 5913 5914 5915 5916 5917 5918 5919 5920 5921 5922 5923 5924 5925 5926 5927 5928 5929 5930 5931 5932 5933 5934 5935 5936 5937 5937 5938 5939 5939 5940 5940 5940 5941 5941 5941 5942 5942 5942 5943 5944 5944 5944 5945 5945 5945 5945 5946 5946 5947
5881 5882 5883 5885 5889 5893 5896 5899 5901 5903 5905 5906 5908 5909 5911 5913 5914 5915 5916 5917 5918 5919 5920 5921 5922 5923 5924 5925 5926 5927 5928 5929 5930 5931 5932 5933 5934 5935 5936 5937 5937 5938 5939 5939 5940 5940 5940 5941 5941 5941 5942 5942 5943 5943 5944 5944 5945 5945 5945 5945 5946 5946 5947
5878 5879 5880 5883 5886 5891 5894 5897 5899 5901 5903 5905 5906 5908 5909 5911 5912 5913 5915 5916 5917 5918 5919 5920 5921 5922 5923 5924 5925 5926 5927 5928 5929 5930 5931 5932 5933 5934 5935 5936 5937 5937 5938 5939 5939 5940 5940 5940 5940 5941 5941 5942 5942 5943 5943 5944 5944 5945 5945 5945 5946 5946 5946
5875 5876 5878 5880 5884 5888 5891 5894 5897 5899 5901 5903 5904 5906 5907 5908 5910 5912 5913 5914 5916 5917 5918 5918 5919 5921 5922 5923 5924 5925 5926 5927 5928 5929 5930 5931 5932 5934 5935 5935 5936 5936 5937 5938 5938 5939 5939 5939 5940 5940 5940 5941 5941 5942 5943 5943 5944 5944 5945 5945 5945 5945 5945
5870 5874 5878 5880 5883 5886 5889 5893 5895 5897 5899 5901 5902 5904 5905 5906 5908 5910 5911 5913 5914 5915 5916 5917 5919 5920 5921 5922 5923 5924 5925 5926 5927 5928 5929 5930 5931 5932 5933 5934 5935 5936 5936 5937 5937 5937 5938 5939 5939 5939 5940 5940 5941 5941 5942 5942 5943 5943 5944 5944 5944 5945 5945
5867 5873 5878 5881 5883 5885 5888 5891 5894 5896 5897 5898 5900 5901 5902 5904 5906 5908 5910 5911 5913 5914 5915 5917 5918 5919 5920 5921 5922 5923 5924 5924 5925 5927 5928 5929 5930 5931 5932 5933 5934 5935 5935 5935 5936 5936 5937 5937 5938 5938 5939 5939 5940 5940 5941 5941 5942 5942 5943 5943 5944 5944 5944
5868 5872 5876 5879 5881 5883 5885 5888 5891 5893 5894 5896 5897 5898 5900 5902 5903 5905 5908 5910 5911 5912 5914 5915 5916 5917 5918 5919 5920 5921 5922 5923 5924 5925 5926 5928 5929 5929 5930 5931 5932 5933 5934 5934 5934 5935 5935 5936 5936 5937 5938 5938 5938 5939 5939 5940 5940 5941 5941 5942 5943 5943 5943
5870 5871 5874 5876 5878 5880 5882 5885 5887 5889 5891 5892 5894 5896 5898 5900 5901 5903 5906 5908 5909 5911 5912 5914 5915 5915 5916 5917 5918 5919 5920 5922 5923 5924 5925 5926 5927 5927 5928 5929 5930 5931 5932 5932 5933 5934 5934 5935 5935 5936 5936 5937 5937 5937 5938 5938 5938 5939 5940 5940 5941 5942 5942
5870 5872 5873 5875 5876 5878 5879 5882 5884 5886 5888 5890 5892 5894 5896 5898 5899 5901 5903 5905 5907 5909 5910 5911 5912 5913 5914 5915 5917 5918 5919 5920 5921 5922 5923 5924 5925 5925 5926 5927 5928 5929 5929 5930 5931 5932 5932 5933 5934 5934 5935 5935 5935 5936 5936 5937 5937 5937 5938 5939 5939 5940 5941
5869 5870 5872 5873 5874 5875 5876 5878 5880 5883 5885 5887 5889 5892 5894 5896 5897 5899 5900 5903 5905 5906 5907 5909 5910 5911 5913 5914 5915 5916 5918 5919 5920 5920 5921 5922 5922 5923 5924 5925 5926 5927 5927 5928 5929 5929 5930 5931 5932 5932 5933 5933 5934 5934 5935 5935 5935 5936 5937 5937 5938 5938 5939
5867 5869 5870 5871 5871 5872 5873 5875 5877 5879 5882 5884 5886 5889 5891 5893 5895 5897 5898 5900 5902 5904 5905 5907 5908 5910 5911 5912 5913 5914 5916 5917 5917 5918 5919 5919 5920 5921 5922 5923 5924 5925 5925 5926 5927 5927 5928 5929 5929 5930 5931 5931 5932 5933 5933 5934 5934 5934 5935 5935 5936 5936 5937
5866 5866 5868 5869 5870 5871 5873 5874 5876 5878 5880 5882 5885 5887 5890 5892 5893 5895 5896 5898 5899 5901 5902 5904 5905 5907 5908 5910 5911 5912 5913 5914 5915 5916 5916 5917 5917 5919 5920 5921 5923 5924 5924 5925 5926 5926 5927 5928 5928 5928 5929 5930 5930 5931 5932 5932 5933 5933 5933 5933 5934 5934 5935
5864 5865 5865 5867 5869 5871 5873 5875 5877 5878 5880 5883 5885 5888 5890 5891 5892 5893 5894 5895 5896 5897 5898 5899 5901 5903 5904 5906 5907 5909 5910 5911 5912 5913 5913 5914 5915 5916 5918 5920 5921 5922 5923 5924 5925 5925 5926 5926 5927 5927 5927 5928 5929 5929 5930 5930 5931 5931 5932 5932 5932 5933 5934
5863 5864 5865 5866 5868 5869 5871 5874 5876 5878 5880 5882 5884 5886 5888 5889 5890 5891 5891 5892 5893 5894 5894 5895 5896 5898 5899 5901 5903 5905 5906 5908 5909 5910 5910 5911 5912 5913 5915 5917 5918 5919 5920 5921 5922 5923 5924 5924 5925 5926 5926 5927 5927 5927 5928 5928 5929 5929 5930 5931 5932 5932 5933
5862 5863 5863 5865 5867 5868 5870 5872 5874 5876 5878 5880 5881 5883 5885 5886 5887 5888 5890 5890 5890 5891 5891 5892 5893 5894 5895 5897 5899 5901 5902 5903 5904 5905 5906 5907 5908 5909 5911 5913 5914 5915 5916 5918 5919 5919 5920 5921 5922 5923 5924 5924 5925 5925 5926 5926 5927 5927 5928 5930 5931 5932 5932
5861 5862 5863 5864 5866 5868 5869 5871 5872 5874 5876 5877 5878 5880 5881 5883 5884 5885 5886 5888 5888 5888 5888 5890 5891 5892 5893 5893 5894 5896 5898 5899 5900 5901 5902 5903 5904 5905 5907 5909 5910 5911 5912 5914 5915 5915 5917 5918 5919 5920 5920 5921 5922 5923 5923 5924 5924 5925 5927 5928 5929 5929 5929
5859 5860 5862 5864 5865 5867 5868 5869 5871 5871 5872 5874 5876 5877 5878 5880 5881 5881 5882 5884 5885 5886 5886 5886 5887 5888 5889 5890 5890 5892 5894 5896 5896 5897 5898 5899 5900 5902 5903 5905 5906 5907 5908 5909 5910 5912 5913 5914 5915 5916 5917 5918 5919 5920 5920 5921 5922 5923 5924 5925 5926 5926 5925
5857 5859 5861 5863 5864 5866 5867 5868 5869 5869 5870 5871 5873 5874 5875 5877 5878 5878 5878 5880 5881 5882 5882 5883 5883 5885 5886 5888 5889 5890 5891 5893 5894 5895 5895 5896 5896 5897 5899 5900 5901 5902 5904 5906 5907 5908 5910 5911 5912 5913 5913 5914 5915 5916 5917 5918 5919 5920 5921 5922 5923 5923 5923
5856 5857 5859 5861 5863 5864 5866 5866 5867 5867 5868 5869 5870 5871 5873 5874 5874 5875 5875 5875 5876 5878 5879 5879 5880 5881 5882 5883 5885 5886 5887 5890 5891 5891 5891 5892 5892 5892 5894 5896 5897 5898 5900 5902 5904 5905 5906 5908 5909 5909 5910 5911 5912 5913 5914 5915 5916 5917 5917 5918 5919 5920 5920
5854 5856 5857 5859 5861 5863 5864 5865 5866 5866 5867 5868 5868 5869 5870 5871 5871 5871 5871 5871 5872 5873 5874 5875 5876 5877 5877 5879 5880 5880 5883 5886 5886 5885 5887 5887 5887 5887 5889 5891 5892 5894 5896 5898 5900 5901 5903 5904 5905 5906 5907 5908 5909 5910 5911 5913 5913 5914 5914 5914 5915 5916 5917
5852 5854 5856 5857 5858 5860 5861 5862 5864 5864 5865 5865 5866 5866 5867 5868 5868 5868 5868 5868 5869 5869 5870 5871 5873 5873 5874 5875 5876 5876 5878 5880 5880 5880 5881 5882 5882 5883 5885 5887 5888 5889 5892 5894 5895 5896 5898 5900 5902 5903 5904 5905 5906 5907 5909 5909 5910 5910 5911 5911 5911 5912 5912
5850 5852 5854 5855 5856 5857 5858 5860 5861 5862 5862 5863 5863 5863 5864 5865 5865 5866 5866 5866 5866 5866 5867 5867 5868 5868 5869 5870 5871 5872 5873 5875 5875 5875 5876 5878 5879 5880 5882 5884 5885 5886 5888 5890 5891 5892 5893 5895 5897 5899 5900 5902 5903 5904 5905 5905 5906 5906 5907 5907 5908 5908 5909
5848 5849 5851 5852 5853 5854 5856 5857 5858 5859 5859 5860 5860 5860 5861 5862 5863 5863 5863 5863 5863 5863 5864 5863 5863 5864 5864 5865 5865 5866 5868 5869 5870 5871 5872 5874 5876 5878 5879 5879 5881 5884 5886 5886 5886 5887 5889 5891 5892 5894 5896 5897 5899 5900 5901 5901 5902 5903 5903 5903 5904 5905 5905
5845 5846 5848 5849 5850 5851 5853 5854 5855 5856 5856 5857 5858 5858 5858 5859 5859 5860 5860 5860 5859 5859 5859 5859 5858 5859 5860 5861 5861 5861 5862 5863 5865 5867 5868 5869 5871 5873 5875 5875 5876 5878 5881 5881 5882 5884 5885 5887 5888 5889 5891 5892 5894 5895 5896 5898 5898 5899 5899 5900 5900 5901 5902
5843 5844 5845 5846 5847 5849 5850 5851 5852 5852 5853 5854 5855 5855 5856 5856 5857 5857 5856 5855 5854 5854 5854 5854 5854 5855 5856 5857 5858 5857 5857 5858 5860 5862 5864 5865 5867 5870 5871 5872 5872 5873 5874 5876 5877 5879 5881 5882 5883 5884 5886 5888 5889 5890 5892 5893 5894 5895 5895 5896 5897 5897 5898
5840 5841 5842 5844 5845 5846 5847 5848 5849 5850 5851 5851 5852 5852 5853 5854 5855 5855 5855 5853 5850 5849 5852 5852 5851 5852 5853 5854 5855 5855 5854 5855 5856 5857 5859 5861 5863 5866 5867 5867 5868 5868 5869 5870 5872 5874 5876 5877 5878 5880 5882 5883 5885 5886 5887 5889 5890 5890 5891 5892 5892 5893 5894
5836 5838 5840 5841 5842 5843 5844 5845 5846 5847 5848 5848 5849 5849 5849 5850 5851 5852 5852 5851 5848 5846 5848 5850 5849 5850 5851 5851 5852 5853 5853 5853 5853 5853 5854 5856 5858 5860 5861 5862 5863 5864 5865 5866 5867 5869 5870 5871 5874 5876 5878 5879 5880 5881 5883 5884 5885 5885 5886 5887 5887 5888 5889
5833 5834 5836 5837 5839 5840 5841 5842 5843 5844 5844 5845 5845 5846 5846 5846 5847 5848 5848 5848 5846 5845 5845 5847 5847 5848 5849 5849 5849 5850 5850 5851 5851 5851 5851 5852 5853 5855 5856 5857 5858 5859 5860 5861 5863 5865 5866 5867 5869 5871 5873 5874 5876 5877 5878 5879 5880 5881 5881 5881 5881 5882 5884
5830 5831 5832 5834 5835 5836 5837 5838 5839 5840 5841 5841 5842 5843 5843 5843 5843 5844 5844 5844 5843 5842 5843 5844 5845 5846 5847 5847 5848 5847 5847 5847 5847 5848 5848 5848 5849 5850 5851 5852 5853 5854 5855 5856 5858 5860 5861 5862 5864 5866 5868 5870 5871 5872 5873 5874 5875 5876 5875 5874 5874 5876 5878
5826 5827 5828 5829 5831 5832 5833 5834 5835 5836 5836 5837 5838 5839 5840 5840 5840 5840 5840 5840 5840 5840 5841 5842 5843 5844 5844 5845 5845 5844 5844 5844 5845 5845 5845 5845 5846 5847 5847 5848 5849 5849 5850 5851 5852 5854 5856 5858 5860 5861 5863 5864 5865 5867 5868 5869 5870 5870 5869 5868 5869 5871 5872
5823 5824 5825 5826 5827 5828 5829 5830 5831 5832 5832 5833 5834 5834 5835 5837 5837 5837 5837 5837 5837 5838 5838 5839 5841 5842 5841 5842 5842 5842 5842 5842 5842 5842 5842 5843 5844 5844 5844 5844 5845 5846 5846 5847 5848 5849 5851 5853 5855 5857 5858 5859 5861 5862 5863 5864 5865 5865 5864 5865 5866 5867 5868
5820 5821 5822 5822 5823 5823 5824 5825 5827 5828 5828 5829 5829 5830 5831 5832 5834 5834 5834 5834 5835 5835 5835 5836 5838 5839 5839 5839 5839 5840 5840 5840 5839 5839 5840 5841 5841 5842 5842 5842 5842 5843 5843 5844 5845 5846 5849 5851 5853 5854 5855 5856 5858 5859 5860 5861 5861 5861 5861 5862 5863 5864 5865
5816 5818 5819 5819 5820 5820 5820 5821 5822 5823 5824 5825 5826 5826 5827 5828 5829 5830 5831 5832 5832 5832 5833 5833 5834 5835 5836 5836 5836 5837 5837 5837 5837 5837 5837 5838 5838 5839 5839 5840 5840 5841 5841 5842 5844 5845 5847 5849 5850 5851 5852 5854 5856 5857 5858 5858 5858 5857 5858 5859 5860 5860 5861
5813 5814 5816 5816 5816 5816 5817 5817 5818 5819 5821 5821 5822 5823 5823 5824 5825 5826 5827 5828 5829 5829 5830 5830 5831 5831 5832 5833 5833 5833 5834 5834 5834 5834 5834 5835 5836 5836 5836 5837 5837 5838 5839 5840 5841 5843 5844 5845 5846 5847 5848 5850 5852 5853 5854 5854 5854 5854 5855 5856 5856 5856 5857
5810 5811 5812 5812 5813 5813 5813 5814 5815 5816 5817 5818 5819 5819 5820 5820 5821 5822 5822 5823 5824 5825 5826 5826 5827 5827 5828 5829 5830 5830 5830 5830 5830 5830 5831 5832 5833 5833 5833 5833 5834 5835 5836 5837 5838 5839 5840 5841 5843 5844 5845 5846 5846 5847 5848 5849 5849 5850 5851 5852 5852 5852 5853
5807 5808 5808 5809 5809 5810 5810 5811 5812 5813 5814 5814 5815 5815 5816 5817 5817 5818 5819 5819 5820 5821 5822 5822 5823 5824 5824 5825 5826 5826 5827 5827 5827 5827 5827 5828 5829 5829 5830 5830 5831 5831 5832 5833 5834 5835 5836 5837 5839 5840 5841 5842 5842 5843 5844 5845 5846 5846 5847 5848 5848 5848 5848
5804 5805 5805 5806 5807 5807 5808 5809 5809 5810 5811 5811 5812 5813 5813 5813 5814 5815 5815 5816 5816 5817 5817 5818 5819 5820 5820 5821 5821 5822 5822 5822 5822 5823 5823 5824 5825 5825 5825 5826 5826 5827 5827 5828 5829 5830 5831 5833 5834 5836 5837 5838 5838 5839 5840 5840 5841 5841 5842 5842 5843 5843 5843
5802 5802 5803 5804 5804 5805 5806 5806 5807 5807 5808 5808 5809 5810 5810 5810 5811 5812 5812 5812 5813 5813 5813 5814 5815 5816 5816 5817 5817 5817 5818 5818 5818 5818 5819 5819 5820 5821 5821 5821 5822 5822 5823 5824 5825 5826 5827 5828 5829 5831 5832 5833 5834 5835 5835 5836 5836 5836 5836 5836 5837 5837 5837
Wind_Speed
32 33 31 29 28 27 25 24 24 22 22 21 20 20 21 21 20 20 20 19 19 19 18 19 19 19 18 18 17 16 15 14 13 11 10 9 8 7 6 5 5 4 4 4 5 5 5 5 5 5 5 5 5 5 5 4 4 4 4 4 3 3 4
31 36 35 32 29 27 26 25 25 24 24 23 22 21 21 21 21 21 21 21 20 20 20 19 19 19 19 18 17 17 16 15 14 13 11 11 10 9 8 7 6 5 4 5 5 5 6 6 6 6 6 6 7 6 6 6 5 5 5 5 4 4 4
30 37 38 34 30 27 26 25 25 25 25 24 23 23 22 22 22 23 23 23 22 22 21 20 20 19 19 18 18 17 16 15 15 14 13 12 12 10 9 8 7 6 6 6 5 5 6 7 7 7 7 7 7 7 7 7 7 7 7 6 6 6 6
31 39 39 35 31 28 26 25 25 25 25 25 24 24 24 23 23 24 24 24 23 23 23 23 22 21 20 19 19 18 17 16 16 15 14 13 13 12 11 10 9 9 8 7 6 6 7 7 8 8 8 8 8 8 8 8 8 8 8 8 7 7 7
32 39 36 32 30 28 26 25 24 25 26 26 25 25 25 25 24 24 24 25 24 24 24 23 23 22 21 20 20 19 18 18 17 16 15 14 14 13 13 12 11 10 9 9 8 8 7 8 8 8 8 8 8 8 8 8 8 8 8 8 8 8 8
33 36 32 29 28 26 26 25 25 25 26 26 26 26 27 26 24 23 24 25 25 24 24 23 22 22 22 21 21 20 20 19 18 18 17 16 16 16 15 14 13 12 11 11 10 10 9 9 9 8 8 8 8 8 8 8 8 8 8 8 8 8 8
34 35 33 31 29 27 27 27 27 27 27 27 26 27 27 26 25 24 24 25 25 25 24 23 23 23 23 23 23 23 22 21 20 20 19 18 18 18 17 15 15 14 13 13 12 12 11 11 10 9 9 9 9 8 9 9 9 8 8 8 8 8 8
29 34 35 35 33 32 30 29 29 29 30 29 27 26 26 25 24 24 23 24 25 25 25 25 25 25 25 25 25 25 24 24 22 21 21 20 20 20 19 18 17 17 16 15 15 14 13 12 11 11 10 10 10 9 9 9 9 9 9 9 9 9 9
21 26 30 33 36 37 34 32 32 31 30 29 27 25 25 24 23 22 22 23 24 25 26 27 27 27 27 26 26 26 26 25 24 24 23 23 23 22 21 20 19 19 19 18 17 16 15 14 13 13 12 12 12 11 11 10 10 9 9 9 10 10 10
16 17 19 21 28 37 40 36 33 33 31 30 28 26 25 24 23 22 22 21 22 24 26 28 28 28 28 27 27 26 26 25 26 26 25 25 25 24 23 23 22 21 21 20 19 18 17 17 16 16 15 14 13 13 12 12 11 10 10 10 10 10 10
15 13 14 14 17 29 41 41 37 35 34 32 31 29 27 26 25 23 21 20 20 21 24 25 26 27 27 28 28 27 27 27 27 27 27 27 28 27 26 25 24 24 23 22 21 20 19 19 18 18 17 16 15 14 14 14 13 12 12 11 11 11 11
15 13 14 14 13 18 30 37 36 35 34 33 32 30 28 28 26 24 23 22 22 22 22 23 24 25 26 27 28 28 28 28 28 28 28 28 29 28 28 27 26 25 25 24 23 22 21 21 20 20 20 18 17 16 15 15 15 14 14 13 13 12 11
15 13 11 11 11 12 17 23 26 28 28 28 28 28 27 29 28 27 27 26 25 25 25 25 25 25 26 27 28 29 30 30 30 30 30 30 29 28 28 27 27 27 26 26 25 24 24 24 23 22 22 21 20 19 18 17 17 16 15 15 14 13 12
13 11 8 7 8 10 13 17 19 21 23 24 25 26 27 29 30 30 30 30 30 30 30 28 27 27 28 28 29 29 30 30 31 32 32 31 30 29 27 27 27 28 28 28 27 27 27 26 26 25 24 23 23 22 21 20 19 18 17 16 15 13 12
13 9 7 6 7 9 12 16 18 20 23 24 25 26 28 30 31 31 31 32 32 34 33 31 30 29 29 29 29 28 29 30 32 33 34 34 32 30 29 28 28 29 29 29 29 29 29 28 28 27 26 26 25 24 23 23 22 21 19 17 15 14 14
15 11 9 8 8 9 11 13 16 19 23 25 27 28 29 30 32 34 34 34 33 34 35 34 32 32 33 32 31 30 30 31 32 34 35 35 34 33 31 30 30 30 30 31 31 31 30 30 29 29 28 28 27 25 24 24 24 23 21 19 17 16 17
17 15 12 10 10 12 13 13 14 15 19 23 25 27 28 30 32 34 36 37 37 35 35 36 36 36 37 37 35 33 31 31 32 33 35 36 36 35 33 31 31 31 32 32 32 32 32 31 31 30 30 29 28 27 25 25 24 24 23 22 22 21 21
18 18 16 14 14 15 17 17 16 16 17 19 21 22 24 26 27 29 31 35 38 39 38 38 38 38 38 38 38 36 35 34 32 32 33 35 35 35 34 33 33 33 33 32 33 33 33 33 32 32 31 30 29 28 27 26 25 24 24 24 23 23 23
18 20 21 20 19 19 20 21 20 20 19 19 19 20 21 21 22 23 24 26 31 37 40 40 39 38 39 40 40 39 37 36 36 36 35 34 34 34 34 33 33 33 33 33 33 34 34 34 33 33 33 32 31 30 29 28 27 26 26 25 24 23 24
20 21 23 24 23 22 22 23 23 23 22 21 20 20 20 20 20 21 22 22 23 28 35 39 40 41 42 42 42 41 39 38 41 43 40 36 36 35 34 33 33 33 33 33 33 35 35 35 34 34 33 32 31 30 29 29 28 28 28 28 27 25 25
23 23 24 25 25 24 24 24 24 23 23 23 23 22 21 21 20 20 20 21 22 23 25 30 34 37 41 44 45 44 42 42 45 47 44 40 39 38 35 33 34 34 33 33 34 35 35 35 34 34 33 32 31 30 30 29 29 29 29 28 28 28 28
27 27 26 26 26 25 24 24 24 24 24 24 25 24 24 23 22 21 21 22 23 24 25 26 28 31 34 38 43 46 44 45 47 47 46 44 41 39 37 35 34 34 32 32 34 36 35 34 34 34 33 32 30 29 29 28 28 29 29 29 29 29 29
30 30 29 28 28 26 25 24 24 25 25 26 27 27 26 25 23 22 22 23 24 25 25 26 28 29 29 31 37 43 45 45 47 48 47 44 42 41 39 37 36 34 33 34 36 36 36 36 35 35 34 33 31 30 29 28 28 28 29 29 28 28 29
31 31 30 29 28 27 25 25 25 25 25 26 27 29 28 27 26 24 23 23 26 28 28 28 27 26 26 27 30 36 42 44 46 47 46 44 43 42 41 40 38 35 35 37 37 35 35 37 38 37 35 34 32 31 30 29 28 28 28 28 28 28 28
30 31 30 29 27 26 26 26 26 25 25 24 25 27 29 29 28 26 25 27 29 29 25 23 22 21 21 22 23 27 34 39 41 42 43 43 43 42 41 42 41 37 36 38 38 34 34 37 39 37 36 35 33 32 32 30 29 29 29 29 29 29 28
31 31 30 28 26 25 25 25 24 24 24 24 24 25 27 29 29 28 26 26 26 25 19 16 17 18 17 18 18 19 24 29 33 37 39 41 42 41 41 42 42 39 38 38 38 36 34 36 37 36 35 35 34 33 32 32 32 32 32 32 32 32 31
32 31 29 27 26 24 22 21 21 21 22 23 23 24 25 27 29 30 27 23 24 27 24 19 18 18 19 20 20 20 20 21 24 28 33 37 39 39 40 42 42 42 41 41 39 37 35 35 36 36 36 36 35 34 33 33 35 35 35 35 36 36 35
32 31 29 27 27 26 24 22 21 21 21 21 22 21 22 24 26 29 31 30 29 29 27 25 23 23 22 22 22 23 23 21 19 21 26 31 35 37 38 40 41 42 42 42 42 41 38 35 35 36 35 35 35 35 34 33 34 35 35 37 39 39 38
33 31 29 29 28 29 30 29 27 25 25 24 22 20 19 20 23 26 29 31 32 31 29 28 27 24 22 21 21 22 22 21 20 20 21 24 27 31 34 36 37 39 41 42 43 42 40 38 37 37 36 35 36 36 34 32 31 31 31 34 36 38 38
33 32 31 31 32 33 33 32 31 30 28 27 26 23 20 18 19 22 24 25 27 27 27 27 25 23 21 20 21 23 23 22 20 18 19 20 19 20 23 26 27 30 34 38 43 45 45 43 41 40 38 38 37 35 32 30 28 26 26 27 29 33 35
34 33 33 33 34 34 32 31 31 30 29 28 28 27 24 20 19 20 21 22 22 22 24 25 24 23 22 21 21 23 23 23 21 19 20 21 18 17 18 18 17 16 18 22 28 34 38 39 39 39 38 36 35 32 30 27 25 24 24 23 24 28 29
34 33 34 35 34 32 30 29 29 29 29 28 28 29 28 25 22 21 21 21 19 19 21 24 24 22 22 22 22 22 22 23 23 23 24 23 21 19 19 17 15 14 13 14 14 16 19 23 26 28 30 30 28 27 26 26 25 24 24 23 23 24 25
35 34 34 33 32 30 29 28 28 28 28 28 27 28 29 28 26 25 24 23 21 19 19 21 22 22 22 21 22 23 23 21 21 22 24 24 21 19 18 18 17 16 15 15 14 14 15 18 20 22 24 24 22 21 22 25 26 25 25 24 23 23 23
35 35 34 32 30 29 28 27 27 27 27 27 26 25 26 27 27 27 27 27 25 23 22 22 22 22 23 23 23 24 24 23 22 22 23 23 22 20 20 20 20 18 17 18 18 18 20 22 22 22 22 21 21 21 23 24 24 24 25 26 26 25 24
35 33 31 29 27 25 24 24 24 24 24 25 24 24 24 25 27 27 28 28 27 26 25 25 24 24 24 25 25 25 25 25 24 23 24 24 24 23 24 24 24 23 22 22 22 22 22 23 23 24 24 25 25 26 25 25 25 25 27 28 28 28 28
30 28 26 23 22 21 21 21 22 22 22 22 22 22 23 24 25 26 27 27 27 26 26 26 26 27 27 27 27 27 26 25 25 25 25 26 26 27 27 28 27 27 26 26 25 24 23 24 24 25 26 28 30 30 29 29 29 29 29 29 30 30 30
24 22 21 20 19 19 19 19 20 20 20 20 20 20 21 22 23 24 25 26 27 27 27 27 27 28 29 29 29 28 28 28 27 27 27 27 28 29 29 30 30 30 29 28 27 26 25 25 26 26 27 29 31 32 32 31 31 31 31 32 32 32 33
19 18 18 18 18 17 17 18 18 18 19 19 19 20 20 21 22 23 24 25 26 27 28 27 28 28 29 29 29 29 29 29 29 29 29 30 30 30 30 30 31 31 30 30 29 29 29 29 29 30 31 32 32 33 34 35 35 35 35 35 35 36 36
Wind_Direction
216 215 217 214 208 207 208 205 203 204 205 206 205 204 204 202 200 201 203 204 203 202 202 203 203 202 200 201 202 202 205 209 210 208 204 201 201 199 197 199 201 204 210 208 200 190 185 184 186 188 190 197 204 206 208 211 204 198 200 201 200 202 207
218 215 214 212 209 206 209 209 205 203 205 206 206 206 205 205 203 202 203 206 207 206 205 206 206 205 203 203 205 205 207 208 207 206 203 201 203 202 199 200 200 199 206 213 215 211 205 201 200 202 202 205 212 215 218 221 220 220 224 224 224 224 223
220 218 213 208 207 205 208 212 209 205 206 208 209 207 206 207 208 207 205 205 208 209 208 209 210 208 205 205 206 208 209 210 209 207 205 205 207 207 206 206 203 202 205 209 215 218 218 214 211 211 209 209 212 216 221 224 226 228 234 237 237 239 242
218 216 211 204 202 203 204 208 209 208 208 210 211 210 208 208 209 212 211 208 208 210 211 210 211 212 210 208 209 209 210 211 211 211 210 211 212 212 211 210 208 207 205 204 208 214 221 222 218 216 214 213 213 215 219 223 226 230 235 238 238 240 246
210 208 208 203 200 199 200 203 207 209 209 210 212 213 212 210 210 214 216 214 211 212 214 214 214 214 215 214 213 212 212 212 213 214 215 216 216 215 214 212 210 210 207 206 206 210 218 224 222 217 215 216 215 214 216 218 220 224 228 232 234 236 240
190 192 201 206 205 202 198 200 205 209 211 211 211 213 214 213 212 215 220 221 217 215 217 217 217 217 218 219 219 218 216 214 215 216 216 217 218 218 217 214 212 212 211 211 210 209 213 220 222 220 217 217 218 217 217 215 215 218 221 226 230 231 234
179 184 193 201 206 208 205 200 200 206 210 212 211 212 214 214 213 216 220 223 223 220 219 219 220 220 220 220 221 222 221 219 218 218 217 218 220 221 220 218 216 215 214 215 215 214 214 217 219 221 221 221 220 220 220 217 215 216 219 223 225 227 231
185 189 194 198 203 208 210 203 199 203 207 211 212 213 215 216 215 217 220 223 225 224 222 222 222 223 223 222 222 222 222 223 222 221 221 220 221 222 222 222 221 219 218 219 219 219 219 218 219 222 226 227 224 221 221 220 218 217 218 221 223 226 229
193 195 198 202 205 209 212 207 200 202 206 209 211 213 216 217 216 218 220 222 225 225 224 223 223 224 225 225 225 224 223 223 224 224 224 224 225 224 223 224 224 222 221 222 223 223 223 222 222 224 227 229 229 228 226 224 223 222 222 223 224 227 230
198 197 200 205 208 210 212 210 203 201 204 209 210 212 216 218 216 216 218 221 224 227 227 226 225 226 227 228 229 229 228 227 226 225 225 227 228 227 226 225 225 224 224 224 224 225 226 225 226 227 229 230 232 234 236 234 230 228 228 229 230 230 230
205 201 206 213 211 205 206 210 208 204 204 207 210 211 214 218 219 218 219 222 225 230 233 233 231 230 230 230 232 233 232 232 231 229 228 228 230 230 230 229 228 228 228 228 228 228 229 230 230 232 232 232 232 235 241 241 239 235 233 233 233 233 233
211 207 208 215 219 204 201 207 212 212 211 210 212 213 214 218 222 221 221 223 225 229 233 235 236 235 234 233 233 234 234 235 236 235 234 233 234 234 234 234 234 234 234 235 235 235 236 236 236 237 238 238 235 234 238 242 243 241 239 237 238 236 235
222 217 212 216 227 221 208 210 217 221 221 219 219 219 218 218 221 223 222 223 224 227 230 232 233 234 235 235 235 234 234 234 236 237 238 239 239 239 239 240 240 240 240 241 241 241 242 243 243 244 244 244 242 239 237 239 242 244 243 242 243 243 242
234 228 224 228 234 231 222 220 224 228 229 229 228 229 228 227 226 226 224 223 223 226 230 232 232 232 233 235 235 235 235 235 236 237 237 238 239 241 242 243 244 244 244 244 244 243 244 246 247 248 248 248 248 246 244 243 243 245 246 247 250 253 254
230 229 234 241 244 242 232 225 227 230 232 235 235 234 235 236 235 233 230 226 225 226 229 232 235 235 235 236 236 235 235 235 235 237 237 238 238 238 239 241 243 245 245 246 245 244 244 245 246 247 248 249 248 249 249 249 248 247 247 250 255 258 259
230 229 238 249 256 259 254 242 236 233 231 234 238 238 238 238 238 238 236 232 229 228 229 232 236 237 237 236 236 236 236 236 235 236 237 238 239 238 238 238 240 243 245 245 245 245 244 244 244 245 246 247 248 248 249 251 254 254 252 252 252 252 252
238 235 238 254 269 273 272 265 256 247 239 237 240 242 242 241 240 241 240 236 233 232 230 230 233 236 234 232 233 237 239 239 239 238 237 237 240 241 240 239 239 240 242 243 244 245 245 245 244 245 245 246 247 248 248 249 252 255 255 252 249 245 244
246 244 244 253 268 276 279 276 270 263 255 249 248 245 244 244 244 245 245 241 237 235 234 233 233 235 235 234 236 241 243 242 243 242 239 238 239 241 242 242 241 241 242 243 245 246 246 246 245 246 246 246 247 248 248 247 246 248 251 252 250 247 246
252 255 256 259 266 271 274 275 274 271 266 259 255 252 250 251 251 251 253 251 243 238 237 236 235 235 236 236 237 240 241 242 244 244 241 239 238 239 240 241 242 243 244 245 246 247 247 247 246 246 246 246 246 246 247 247 246 246 247 249 250 251 252
251 258 262 265 267 268 266 267 269 272 273 269 265 262 259 258 258 257 259 262 258 249 243 241 241 241 239 236 235 236 236 237 240 240 238 238 239 239 238 238 239 242 243 244 245 246 246 247 247 247 248 248 248 248 248 249 249 248 248 250 251 251 251
252 257 262 265 268 269 268 266 264 266 271 273 273 272 268 265 265 265 264 265 267 264 258 254 254 254 250 243 238 236 235 236 240 240 236 237 239 240 240 239 238 238 240 242 244 245 246 247 248 249 250 250 251 251 251 250 250 251 251 252 252 251 249
254 258 261 264 268 271 271 268 264 263 264 266 269 273 272 270 268 268 269 270 271 271 271 269 267 266 264 255 245 240 238 239 241 239 236 236 239 239 240 242 241 240 240 242 244 246 246 246 247 248 249 250 251 252 251 250 251 252 253 252 252 252 252
255 259 261 264 268 271 271 269 269 268 265 264 265 268 270 271 270 270 270 270 272 272 272 272 271 270 270 265 255 247 243 244 243 240 237 238 240 239 239 240 240 242 244 244 245 247 248 247 246 245 244 245 249 251 250 249 250 252 253 253 252 252 253
255 258 262 265 269 272 273 274 276 275 271 267 265 264 266 268 269 271 272 273 274 272 268 266 268 269 271 273 267 254 246 244 242 240 240 240 238 237 237 237 236 238 243 247 247 247 248 248 248 245 241 241 247 250 249 249 250 252 253 253 253 252 252
256 259 262 266 270 276 280 281 282 281 279 276 271 266 263 264 266 269 272 272 268 262 259 258 263 270 275 278 278 266 253 246 243 242 243 242 240 239 239 238 235 233 237 244 246 243 242 244 246 244 239 238 245 249 249 249 250 251 252 253 254 254 254
257 260 262 266 272 281 285 284 283 283 284 283 280 272 263 260 261 263 266 272 272 268 268 268 267 272 277 278 280 277 265 256 250 248 246 244 243 243 243 241 238 234 234 239 242 242 241 241 243 243 240 240 245 249 250 251 251 251 252 253 255 256 256
258 260 262 266 273 281 285 284 282 284 285 283 281 276 266 259 256 255 256 264 274 277 280 280 278 279 279 277 278 280 279 272 263 254 248 244 244 243 241 241 240 238 237 237 239 241 242 241 240 242 243 244 246 250 254 254 253 253 254 255 255 255 255
258 260 261 265 271 276 279 279 279 281 283 281 278 274 269 262 256 254 253 255 261 268 273 276 280 282 279 277 279 280 278 272 263 256 252 250 248 245 242 242 243 242 240 240 240 240 241 241 241 242 244 245 247 251 255 255 256 258 260 259 256 253 252
256 260 264 267 271 275 278 277 276 278 280 278 273 269 268 265 258 256 257 259 261 265 269 272 275 277 275 276 277 273 266 259 257 256 256 255 252 247 244 245 246 245 243 243 243 242 241 242 243 243 243 244 245 247 249 250 254 260 264 262 255 248 247
255 260 265 270 274 278 280 277 275 277 279 276 270 266 267 267 263 258 259 262 263 264 265 265 266 268 269 267 264 259 252 250 253 252 246 246 247 244 241 240 241 243 243 243 243 244 243 244 244 243 241 240 240 242 243 243 247 252 257 256 247 240 241
255 260 266 272 277 280 279 276 275 276 278 276 270 266 268 271 268 262 261 263 264 263 260 256 255 258 262 258 253 250 246 241 238 235 237 240 238 234 235 234 231 233 237 239 241 241 240 241 240 238 235 234 233 235 238 240 243 247 250 249 242 237 239
256 262 268 274 277 278 277 275 274 274 275 276 273 268 268 272 272 266 263 265 265 262 258 254 250 251 255 254 248 245 241 235 230 228 233 238 235 233 237 237 234 233 234 235 235 233 233 238 239 235 231 230 230 233 238 243 247 248 250 250 246 243 243
258 264 269 273 275 275 274 273 272 272 273 275 274 270 269 272 271 268 265 266 267 263 258 256 252 249 248 247 244 242 240 239 236 233 232 232 232 232 235 236 236 237 236 237 239 235 233 237 241 239 234 232 234 240 245 249 251 251 251 254 255 254 255
260 265 269 270 271 271 271 269 269 269 269 270 270 267 266 267 267 265 263 263 264 263 260 258 254 250 247 242 239 239 239 241 243 239 235 234 232 229 227 228 231 232 230 230 232 232 234 237 240 243 242 238 237 240 242 246 251 253 254 258 263 265 266
262 265 266 268 268 267 266 265 264 264 264 264 263 260 258 258 259 259 258 259 260 261 261 260 258 257 254 248 243 240 240 242 245 244 241 240 238 233 230 230 230 230 232 235 236 237 241 245 247 248 248 246 244 244 245 248 254 259 259 261 265 267 266
258 261 263 264 263 261 260 259 259 259 259 258 256 254 253 253 252 253 254 255 255 255 256 257 258 260 261 259 256 252 251 250 252 252 250 248 246 243 242 242 242 243 245 248 251 251 249 248 247 247 249 250 249 249 250 252 256 259 261 262 264 265 266
252 255 257 257 257 257 256 256 256 257 257 255 255 254 253 252 251 252 252 253 255 255 253 253 254 256 259 261 261 260 259 258 258 259 259 258 256 254 253 253 254 255 255 256 257 257 254 250 246 245 245 248 249 250 252 255 258 260 262 263 264 265 266
249 251 253 254 254 255 255 255 255 256 256 257 256 255 253 252 251 251 251 252 254 256 256 255 253 252 254 256 257 258 257 257 257 258 259 259 259 258 257 257 257 258 258 257 256 256 254 252 249 248 247 247 249 251 253 256 259 261 263 265 266 267 268